RH
51 33 45 100 100 100 73 81 89 96 96 99 88 86 82 96 100 94 73 70 34 36 32 33 40 31 30 33 38 48 64 67 72 59 67 70 82 83 69 67 62 42 31 31
34 31 80 100 74 90 98 87 83 90 98 98 79 76 88 99 97 93 73 66 61 40 24 26 29 29 26 40 39 42 80 92 82 74 67 50 62 68 74 70 73 64 36 21
78 80 100 100 100 100 100 99 91 88 92 96 93 71 82 88 99 99 98 96 63 30 30 33 31 28 26 45 45 41 55 92 95 94 87 62 49 82 89 89 85 64 40 28
91 74 99 96 99 100 99 98 84 80 88 99 98 84 71 85 99 98 94 90 58 33 30 34 42 35 30 36 46 42 49 78 96 96 94 96 98 98 95 87 79 54 34 32
85 90 88 96 87 93 100 100 99 94 98 100 99 100 70 100 98 89 87 79 70 45 48 47 40 32 28 28 43 44 56 63 94 97 97 95 97 98 90 86 85 70 36 36
95 74 72 81 60 80 100 94 98 98 94 99 99 99 90 74 69 82 90 87 78 45 38 41 46 37 32 32 48 52 48 64 88 94 95 96 97 94 93 99 98 72 43 34
54 52 51 62 49 53 72 90 93 97 98 95 98 97 85 86 87 83 80 83 76 53 54 39 46 39 37 34 48 60 53 71 82 92 86 97 95 97 96 98 99 85 57 35
33 46 50 53 77 80 90 83 92 89 77 85 97 81 65 58 82 98 100 99 96 81 72 53 51 49 37 36 50 59 59 63 75 84 82 86 98 97 97 97 96 92 57 36
40 71 66 78 76 63 59 48 55 83 81 73 66 68 84 54 67 78 75 80 68 65 70 65 58 46 37 32 62 78 74 66 58 63 63 66 74 88 95 93 77 40 36 35
38 57 64 63 57 49 57 45 51 65 68 70 66 56 48 50 44 60 72 70 71 66 73 67 61 49 41 42 67 74 75 77 82 69 68 79 46 54 60 60 40 27 28 39
34 40 59 56 45 47 43 31 28 29 33 36 42 34 30 31 41 41 42 42 49 61 72 80 83 65 47 40 55 74 86 79 72 71 81 72 52 41 46 33 45 31 31 39
28 25 24 40 46 44 40 31 26 23 22 23 18 16 21 26 29 30 28 55 78 74 68 76 96 98 73 49 41 42 64 67 69 65 69 71 82 72 54 52 54 39 29 26
21 17 19 17 20 21 16 18 16 20 21 17 16 16 17 19 26 37 35 39 61 71 70 72 72 63 66 69 52 51 54 50 61 63 62 65 74 75 78 65 54 66 57 45
25 24 22 17 17 24 27 25 34 26 22 18 16 16 19 18 24 34 36 55 59 54 52 49 52 56 59 59 59 53 48 47 49 61 58 56 67 82 85 87 86 85 87 81
32 28 31 35 37 17 15 18 33 38 48 35 29 27 34 33 35 41 45 54 66 63 68 66 60 57 63 58 58 60 54 53 57 57 52 58 65 70 77 85 86 87 94 95
38 32 38 40 42 42 20 20 14 17 26 18 18 20 33 53 43 48 52 56 55 64 65 64 64 67 64 57 52 69 74 74 81 76 72 72 71 75 87 89 87 80 89 95
91 86 63 48 61 62 40 27 28 30 29 26 21 14 44 61 75 71 74 69 68 66 62 63 69 71 80 75 79 82 87 99 100 95 82 71 65 62 73 72 73 76 93 100
100 99 97 96 95 84 58 58 56 38 33 37 25 18 32 43 57 63 69 74 73 76 80 68 56 57 60 74 79 80 88 92 99 98 99 86 74 62 63 68 68 67 70 82
98 98 97 100 99 97 96 97 98 97 82 66 45 36 25 31 36 49 68 60 60 67 66 84 87 76 74 79 82 81 81 90 95 99 98 99 97 86 80 79 72 68 72 78
99 99 99 98 98 87 94 99 96 97 96 98 76 55 43 35 27 32 44 52 54 47 52 58 72 73 76 78 77 81 80 84 89 92 91 88 82 83 86 88 83 76 77 80
100 100 97 100 92 74 96 99 99 98 94 98 99 90 64 43 32 31 28 36 38 45 52 49 58 62 63 68 68 67 70 72 80 90 97 100 100 100 100 100 100 100 100 100
70 67 80 93 92 84 100 95 95 96 91 94 94 95 93 86 71 52 40 36 32 27 33 41 43 43 53 60 60 60 64 68 70 67 63 67 81 89 94 94 94 97 97 96
62 79 78 70 87 96 90 84 85 84 86 84 84 88 88 89 84 83 81 68 46 34 38 41 51 59 61 61 63 59 60 62 62 60 59 58 57 54 52 54 55 54 55 56
72 78 61 62 92 88 71 70 82 90 90 86 87 92 96 95 97 100 100 100 84 57 32 24 35 46 52 58 66 69 73 75 78 82 81 74 69 67 67 66 67 69 72 77
99 100 100 83 100 91 74 67 82 92 92 89 86 91 97 100 100 100 100 100 100 100 95 52 30 28 29 41 51 61 68 72 80 92 99 100 100 96 95 98 99 97 95 92
100 99 90 83 100 74 83 71 74 82 85 92 95 92 92 94 99 100 99 96 97 99 100 100 100 91 76 66 50 36 26 29 34 50 82 96 99 98 95 93 98 100 100 100
Wind_Speed
21 41 60 52 37 38 43 43 48 56 58 41 63 64 63 43 46 54 51 51 47 44 36 31 29 29 26 24 23 23 24 25 26 25 26 27 26 26 25 25 23 21 21 22
33 49 57 31 22 38 37 41 50 60 58 47 56 60 64 49 47 50 50 48 47 43 37 34 31 29 25 23 24 23 22 24 25 28 29 31 30 29 27 25 25 24 22 22
49 45 32 31 15 27 32 41 52 48 55 57 54 59 64 56 45 48 47 46 43 41 35 32 29 28 27 26 24 24 24 23 24 26 29 28 27 23 20 23 24 25 24 25
50 30 15 19 22 17 25 39 46 52 51 52 44 54 62 60 51 45 43 45 46 40 37 36 32 31 28 24 23 23 24 23 23 24 26 23 25 27 27 27 27 26 27 27
34 16 5 11 27 32 20 34 45 54 48 52 38 60 59 56 54 46 43 45 44 42 35 34 32 28 28 28 26 25 25 24 25 25 30 28 28 35 32 28 25 27 29 30
16 15 8 15 31 35 23 27 35 43 48 54 36 50 54 51 45 42 41 43 44 43 41 38 33 33 31 29 25 25 24 23 23 19 23 29 25 35 30 29 30 31 32 33
10 11 11 19 29 26 24 22 30 38 45 46 45 48 50 53 46 37 34 38 41 41 39 38 34 31 29 28 28 26 24 24 24 25 27 25 32 33 33 35 35 30 31 32
9 9 13 20 29 22 22 15 19 36 44 37 26 40 41 43 43 39 34 35 36 37 36 37 35 34 33 31 29 28 28 27 27 26 26 28 25 32 38 34 27 28 33 35
18 14 22 16 20 18 14 13 19 23 34 34 26 36 32 42 41 41 40 41 39 41 37 38 35 36 35 33 28 24 27 28 26 28 30 28 28 26 27 28 29 32 34 35
19 15 23 25 27 22 16 12 11 14 25 22 28 25 31 43 38 37 32 31 33 34 36 40 38 38 38 36 34 31 26 23 24 29 28 29 29 26 25 29 30 31 32 36
13 19 19 27 19 11 9 12 11 10 17 23 28 26 27 28 33 38 38 39 41 41 35 33 35 40 41 40 37 33 29 25 23 18 25 30 28 28 29 31 31 31 32 34
9 13 20 27 28 27 26 23 21 21 20 20 17 20 26 30 35 42 44 39 38 35 33 31 31 36 37 36 35 35 34 33 31 27 26 25 30 35 32 34 34 34 33 36
12 13 17 19 20 23 23 24 23 28 31 29 27 24 29 36 39 39 45 46 46 46 38 37 35 34 34 37 38 38 38 35 33 31 30 30 30 30 31 36 38 39 36 37
24 21 18 17 19 19 25 27 28 31 30 30 28 29 35 35 40 38 40 41 45 44 46 43 46 42 39 37 37 40 39 37 37 36 36 35 35 36 36 35 35 40 42 43
34 31 29 27 27 27 26 25 28 31 31 33 29 34 36 39 37 37 38 41 48 50 46 44 43 42 40 40 41 42 41 41 43 42 42 41 40 37 37 39 39 40 43 45
44 42 40 35 34 35 35 34 35 34 33 32 39 34 37 35 38 38 39 39 40 49 55 53 50 45 47 44 42 45 49 49 48 46 45 44 42 41 40 39 40 42 42 44
47 49 49 47 42 42 46 37 32 33 35 34 36 24 34 37 39 41 41 45 44 42 44 50 51 50 51 53 51 50 50 49 49 50 51 50 48 47 46 45 46 46 47 48
42 42 45 44 49 56 45 40 39 42 39 38 37 34 37 37 43 48 48 48 47 44 43 47 49 52 53 54 54 54 54 55 55 55 54 54 53 53 52 52 52 52 51 51
37 39 40 42 38 40 40 41 46 49 45 43 44 42 43 43 44 47 49 50 49 46 45 48 49 50 53 55 56 56 57 57 57 57 56 55 57 57 57 57 57 57 57 57
30 32 34 36 35 36 30 36 34 37 45 52 49 49 47 48 48 39 46 51 54 53 52 51 52 52 53 52 56 59 59 61 63 62 62 61 61 62 62 62 62 62 62 62
26 28 31 32 37 38 30 33 35 37 40 41 49 53 52 51 52 48 48 50 52 54 56 57 57 57 56 53 53 56 60 62 64 64 64 63 65 66 66 66 66 67 67 67
27 31 31 33 37 37 27 33 36 36 39 40 42 46 50 53 54 54 54 52 52 53 54 57 59 60 60 60 59 59 58 58 58 61 64 65 65 65 67 68 69 69 69 71
30 30 31 31 30 32 29 32 36 37 37 37 38 40 44 49 52 53 54 54 52 53 55 55 56 57 58 59 60 60 61 62 64 65 65 65 66 67 68 69 71 72 72 73
33 32 33 31 27 30 35 32 32 32 31 32 34 36 39 42 45 49 52 56 55 53 51 51 55 59 59 58 59 61 62 62 63 64 64 65 66 67 69 70 71 71 71 72
33 34 34 34 28 32 32 33 29 26 25 27 29 32 36 38 39 41 44 48 53 56 58 49 47 49 53 58 61 63 62 61 60 62 64 66 66 67 67 68 69 70 71 71
32 33 35 35 34 37 35 36 34 31 30 30 30 32 34 33 34 36 39 42 44 47 50 54 59 61 56 54 53 54 55 57 59 62 65 66 67 67 68 69 70 71 71 72
Wind_Direction
161 156 153 158 167 167 197 198 200 187 190 182 190 188 187 188 187 200 201 206 212 216 218 212 217 222 221 225 228 229 229 227 227 229 223 224 223 223 224 226 225 228 233 231
150 161 161 156 171 177 159 199 197 202 186 187 189 192 193 194 202 206 208 205 209 213 213 213 216 223 224 223 228 230 231 230 228 226 226 227 224 226 225 226 228 231 233 228
139 144 131 175 128 171 158 190 196 194 186 191 185 195 198 195 194 204 207 210 216 216 214 217 218 221 223 222 228 232 230 234 234 228 229 233 231 228 231 228 228 231 230 230
133 140 116 146 182 156 170 185 180 186 193 197 202 196 200 202 205 208 212 213 215 216 216 217 217 219 222 225 229 234 236 234 238 229 230 222 227 223 224 227 227 231 233 234
138 132 141 162 174 194 157 172 184 190 200 192 208 200 200 204 209 209 215 215 215 212 213 215 220 221 224 226 229 234 235 233 235 241 228 225 246 229 232 237 234 234 235 235
79 118 127 169 176 188 157 177 189 198 200 205 199 203 204 203 207 208 207 212 211 213 216 219 219 220 222 225 230 234 236 231 242 247 245 231 237 222 228 231 237 235 235 237
89 77 121 169 166 184 199 191 189 198 203 205 198 204 202 203 207 211 218 219 213 213 218 221 222 223 224 227 231 232 232 228 232 236 242 240 242 238 230 235 237 242 245 244
139 125 128 164 169 169 150 169 202 204 204 204 219 188 209 208 209 215 218 217 214 218 221 223 222 221 222 223 227 232 229 224 225 232 238 244 241 228 224 232 242 247 248 248
143 150 134 130 187 190 196 192 199 207 213 211 216 212 213 207 208 218 219 220 220 214 214 220 221 223 225 226 224 230 231 227 229 235 238 241 243 248 251 237 246 251 249 247
131 140 159 159 144 150 138 136 163 199 213 220 224 213 223 229 221 225 233 240 234 225 225 221 221 223 224 222 223 227 230 232 236 236 241 246 250 248 248 250 254 253 249 246
139 163 181 180 196 199 200 186 191 194 204 209 214 225 228 220 222 226 241 246 241 238 233 232 231 227 225 226 226 227 229 238 242 242 242 245 251 253 250 251 251 252 251 251
215 206 182 192 206 216 226 235 237 230 217 212 206 216 223 222 222 230 232 235 231 231 224 224 228 233 232 237 238 236 235 238 243 242 244 249 249 249 249 252 254 255 255 255
222 220 227 220 220 216 218 230 235 233 229 228 225 219 220 220 221 219 228 231 226 225 221 226 230 235 236 237 237 238 241 242 242 243 245 247 249 249 253 253 253 255 255 255
245 236 237 237 236 235 231 229 229 228 225 227 225 222 220 221 221 225 228 226 231 230 228 227 231 233 235 238 239 240 242 242 244 246 246 245 247 250 252 255 255 253 253 254
245 247 249 255 252 239 238 242 235 227 230 235 227 229 228 231 231 231 232 233 227 224 227 231 233 236 240 235 232 236 240 242 243 245 246 247 248 252 253 252 254 254 257 257
241 244 247 246 250 248 241 236 237 238 234 232 229 215 220 231 240 244 240 238 236 235 236 239 240 239 235 236 233 233 236 237 240 241 243 245 247 250 251 252 251 253 252 255
237 239 240 242 247 250 244 242 247 246 243 245 242 232 236 238 239 240 242 241 234 232 235 237 236 234 229 227 228 231 234 236 238 237 239 242 244 245 246 248 250 249 250 253
258 257 251 248 243 243 248 243 247 253 249 249 248 243 245 238 235 237 240 240 241 239 235 235 237 236 235 237 241 242 242 242 242 243 243 244 245 245 246 248 250 251 251 252
257 255 255 256 256 259 254 252 245 243 245 250 250 246 246 244 239 235 240 241 240 241 242 238 234 235 236 237 239 240 242 245 246 249 251 251 250 251 252 253 254 255 256 258
256 253 253 258 257 258 256 256 256 251 243 241 245 243 243 247 246 238 240 242 247 245 244 243 242 243 241 239 240 240 242 243 244 245 246 247 249 251 253 254 255 257 257 259
263 256 255 255 259 259 256 255 253 249 251 242 242 241 245 244 247 246 242 242 243 244 246 247 248 249 250 248 245 244 245 246 248 249 250 251 252 252 252 254 256 258 260 261
268 263 257 254 256 260 254 252 253 251 247 247 246 244 244 247 248 248 247 247 246 246 247 248 250 250 250 250 252 252 251 250 250 251 252 253 255 256 257 259 260 261 262 264
276 266 261 262 262 267 262 255 253 253 253 251 251 248 246 247 248 251 252 251 249 247 245 245 247 249 251 252 254 254 255 254 254 253 253 254 255 256 256 258 260 262 263 264
269 261 260 265 265 258 261 261 258 256 256 256 256 257 256 253 250 249 251 251 251 251 249 248 247 248 251 253 254 254 255 255 255 255 255 255 256 256 257 259 260 261 262 263
260 259 259 258 252 251 254 260 262 262 256 251 247 247 249 250 250 251 252 250 249 251 250 246 247 248 249 250 252 254 255 256 255 256 256 256 257 258 259 260 261 261 262 263
260 259 258 254 244 252 252 257 258 259 256 254 256 255 256 257 255 254 251 250 249 248 248 251 253 248 246 247 249 251 253 255 257 257 256 256 257 258 259 260 261 262 263 264